Regional Weather Roundup
Issued by NWS

Home | Current Version | Previous Version | Graphics & Text | Print | Product List | Glossary On
Versions: 1 2 3 4 5 6 7 8 9 10 11 12 13 14 15 16 17 18 19 20 21 22 23 24 25 26 27 28 29 30 31 32 33 34 35 36 37 38 39 40 41 42 43 44 45 46 47 48 49 50
000
ASUS45 KBOI 231610
RWRID

IDAHO REGIONAL WEATHER ROUNDUP
NATIONAL WEATHER SERVICE BOISE ID
1000 AM MDT TUE AUG 23 2016

NOTE: "FAIR" INDICATES FEW OR NO CLOUDS BELOW 12000 FEET
WITH NO SIGNIFICANT WEATHER AND/OR OBSTRUCTIONS TO VISIBILITY

IDZ012-014-231700-
SOUTHWEST IDAHO


CITY           SKY/WX    TMP DP  RH WIND       PRES   REMARKS
BOISE          SUNNY     61  32  33 CALM      30.12S
CALDWELL       SUNNY     64  36  35 W9        30.13R
MOUNTAIN HOME  SUNNY     66  30  25 NW16      30.10S
$$

IDZ016-017-231700-
SOUTHCENTRAL IDAHO


CITY           SKY/WX    TMP DP  RH WIND       PRES   REMARKS
BURLEY         SUNNY     63  33  32 W10G20    30.12R
JEROME         MOSUNNY   61  28  28 SW12      30.13S
TWIN FALLS     SUNNY     67  20  16 W16       30.15R
$$

IDZ019>023-231700-
SOUTHEAST IDAHO


CITY           SKY/WX    TMP DP  RH WIND       PRES   REMARKS
IDAHO FALLS    MOSUNNY   63  31  30 SW15      30.12R
POCATELLO      SUNNY     67  26  21 SW22      30.12S
REXBURG        MOSUNNY   58  31  35 CALM      30.12S
$$

IDZ006-010-011-018-031-032-231700-
CENTRAL IDAHO MOUNTAINS


CITY           SKY/WX    TMP DP  RH WIND       PRES   REMARKS
MCCALL         SUNNY     55  30  38 S3        30.18R
HAILEY         MOSUNNY   61  21  21 NW9       30.16S
STANLEY          N/A     47  19  33 CALM      30.23F
SALMON         SUNNY     57  34  41 N5        30.16S
CHALLIS        SUNNY     56  31  38 NE3       30.17S
$$

IDZ002-004-006-007-026-231700-
NORTHERN IDAHO


CITY           SKY/WX    TMP DP  RH WIND       PRES   REMARKS
LEWISTON       SUNNY     62  36  37 VRB3      30.13S
LOWELL           N/A     54  40  59 CALM      30.19F
COEUR D`ALENE  SUNNY     61  45  55 SE6       30.11R
MULLAN PASS    MOSUNNY   47  33  58 NW6       30.18R
$$



USA.gov is the U.S. government's official web portal to all federal, state and local government web resources and services.